Regional Weather Roundup
Issued by NWS

Home | Current Version | Previous Version | Text Only | Print | Product List | Glossary On
Versions: 1 2 3 4 5 6 7 8 9 10 11 12 13 14 15 16 17 18 19 20 21 22 23 24 25 26 27 28 29 30 31 32 33 34 35 36 37 38 39 40 41 42 43 44 45 46 47 48 49 50
000
ASUS45 KTFX 310019
RWRMT
MONTANA HOURLY WEATHER ROUNDUP
NATIONAL WEATHER SERVICE GREAT FALLS MT
619 PM MDT SAT AUG 30 2014

NOTE: "FAIR" INDICATES FEW OR NO CLOUDS BELOW 12000 FEET WITH NO
SIGNIFICANT WEATHER AND/OR OBSTRUCTIONS TO VISIBILITY.

* THESE STATIONS ARE NOT UNDER NWS QUALITY CONTROL. THEY DO NOT
   REPORT WEATHER SUCH AS PRECIPITATION OR FOG.

MTZ001>007-043-310100-
WEST OF THE DIVIDE
CITY           SKY/WX    TMP DP  RH WIND       PRES   REMARKS
KALISPELL      CLOUDY    72  36  27 W9G21     29.78S
MISSOULA       CLOUDY    72  37  28 NW12G24   29.83R
BUTTE          LGT RAIN  57  48  72 E7        29.90F
MULLAN PASS    CLOUDY    52  39  61 N/A       29.95F
* LINCOLN      N/A       69  38  32 W6G17      N/A
* LOOKOUT PASS N/A       59  41  51 NE2G9      N/A
* POLSON       N/A       68  36  31 W3G9       N/A
* RONAN APT    MOCLDY    72  39  30 W7         N/A
* SEELEY LAKE  N/A       66  37  34 W7G20      N/A
* THOMP F APT  CLOUDY    57  48  72 S7G16      N/A
$$

MTZ008-052>055-310100-
SOUTHWEST MONTANA
CITY           SKY/WX    TMP DP  RH WIND       PRES   REMARKS
BOZEMAN        CLOUDY    55  52  90 E7        29.90S
DILLON         CLOUDY    57  52  83 S9        29.89S
W YELLOWSTONE  LGT RAIN  45  45 100 NE5       30.02R
* THREE FORKS  CLOUDY    59  39  48 N/A        N/A
* BOULDER HILL N/A       59  45  60 SW9G16     N/A
* MONIDA PASS  N/A       45  44  96 NE2        N/A
* RAYNOLDS PAS N/A       43  -5  13 N13        N/A
* WHITEHALL    N/A       57  52  83 SW5        N/A
* WISE RIVER   N/A       65  41  42 W11G25     N/A
$$

MTZ009>010-012-014-046-048-049-054-310100-
EAST SLOPES AND CENTRAL MONTANA
CITY           SKY/WX    TMP DP  RH WIND       PRES   REMARKS
CUT BANK       PTCLDY    68  37  32 W16G22    29.76F
GREAT FALLS    PTCLDY    73  34  24 W14       29.74F
HELENA         CLOUDY    72  43  35 SW7       29.81R
MALMSTROM AFB  MOCLDY    72  43  35 SW9       29.76S
* CONRAD       CLEAR     73  36  26 W14G24     N/A
* EAST GLACIER N/A       63  35  35 W15G22     N/A
* MONARCH      N/A       63  38  40 W6G11      N/A
* PENDROY      N/A       68  34  28 NW12G17    N/A
* ROGERS PASS  N/A       64  34  33 SE4G18     N/A
* SAINT MARY   N/A       67  38  35 SW8G16     N/A
* SWEET GRASS  N/A       68  33  27 NW14G20    N/A
* WHITE SULPH  N/A       58  53  84 S11G17     N/A
$$

MTZ011-013-016-021-035-040-045-047-050-051-310100-
NORTH CENTRAL MONTANA
CITY           SKY/WX    TMP DP  RH WIND       PRES   REMARKS
HAVRE          PTCLDY    75  46  36 N8        29.69S
LEWISTOWN      CLOUDY    70  46  42 W12       29.79R
* CHINOOK      MOCLDY    72  48  43 N6        29.69S
* FORT BENTON  PTCLDY    73  41  32 SW5       29.72R
* CHESTER      N/A       74  33  22 W13G23     N/A
* DENTON       N/A       72  37  28 NW11G17    N/A
* GEYSER       N/A       68  38  33 NW11G16    N/A
* JUDITH GAP   N/A       63  48  58 SW17       N/A
* LOMA         N/A       75  35  23 W6G14      N/A
$$

MTZ017>020-022>027-061-062-310100-
NORTHEAST MONTANA
CITY           SKY/WX    TMP DP  RH WIND       PRES   REMARKS
GLASGOW        CLOUDY    66  55  68 S9        29.69F
GLENDIVE       MOCLDY    66  57  73 NW10      29.73R
JORDAN         CLOUDY    70  52  53 S5        29.73F
SIDNEY         MOCLDY    68  59  73 N8        29.71R
WOLF POINT     CLOUDY    66  57  73 CALM      29.71S
* BEAVER HILL  N/A       67  60  78 NW9        N/A
* CIRCLE       N/A       67  59  76 N/A        N/A
* LINDSAY DVD  N/A       64  56  75 NW14       N/A
* NAVAJO       N/A       62  58  87 S3         N/A
$$

MTZ028>042-056>058-310100-
SOUTHCENTRAL AND SOUTHEAST MONTANA
CITY           SKY/WX    TMP DP  RH WIND       PRES   REMARKS
BAKER          CLOUDY    70  57  64 NW15G21   29.72S
BILLINGS       CLOUDY    64  52  65 SW9       29.81S
LIVINGSTON     CLOUDY    57  48  72 W18G26    29.88R
MILES CITY     LGT RAIN  66  61  84 S3        29.76S
* LAUREL APT   CLOUDY    64  52  65 N/A        N/A
* ROUNDUP APT  CLOUDY    68  52  57 SW15G21    N/A
* ALZADA       N/A       80  57  45 NW8        N/A   HI  80
* HYSHAM       N/A       66  54  65 S1         N/A
* REED POINT   N/A       64  48  56 W6         N/A
* ROSCOE HILL  N/A       60  40  48 NW4G9      N/A
$$

REGIONAL REPORTS...DAKOTAS
CITY           SKY/WX    TMP DP  RH WIND       PRES   REMARKS
WILLISTON      CLOUDY    64  61  90 N13       29.69R
DICKINSON      CLOUDY    72  57  59 SE12      29.69F
BEACH          N/A       70  64  81 NW9       29.71S
CROSBY         TSTM      61  61 100 N8        29.71R VSB 1 1/2
TIOGA          PTCLDY    64  64 100 S14G22    29.71F
WATFORD CITY   PTCLDY    72  59  64 S8        29.66S
BISMARCK       PTCLDY    73  55  53 SE16      29.73F
GRAND FORKS    PTCLDY    73  54  51 SE8       29.80F
FARGO          CLOUDY    70  59  68 SE7       29.82S
BUFFALO SD     PTCLDY    77  61  58 NE15      29.60F
RAPID CITY     PTCLDY    81  54  39 SE8       29.64F
$$

REGIONAL REPORTS...WYOMING/IDAHO/WASHINGTON
CITY           SKY/WX    TMP DP  RH WIND       PRES   REMARKS
GILLETTE       CLOUDY    73  52  48 N22G30    29.78R
SHERIDAN       TSTM      59  54  84 VRB5      29.86R
CODY           CLOUDY    59  45  60 W8G24     29.90F
YELLOWSTONE LA PTCLDY    46  43  89 CALM      30.08S
SALMON         CLOUDY    64  52  65 NE3       29.85F
MULLAN PASS    CLOUDY    52  39  61 N/A       29.95S
SAND POINT     CLOUDY    70  41  35 SW10G17   29.80F
SPOKANE        CLOUDY    72  43  35 SW15      29.83S
$$

REGIONAL REPORTS...ALBERTA
CITY           SKY/WX    TMP DP  RH WIND       PRES   REMARKS
CALGARY        PTCLDY    66  36  33 W5        29.69S
LETHBRIDGE     CLOUDY    70  37  30 W13G25    29.70S
MEDICINE HAT   LGT RAIN  63  52  68 SW26G33   29.73R
EDMONTON       MOCLDY    64  41  43 W6        29.66S
CARDSTON       N/A       66  36  33 W9         N/A
MILK RIVER     N/A       68  41  38 W9         N/A
$$

REGIONAL REPORTS...SASKATCHEWAN
CITY           SKY/WX    TMP DP  RH WIND       PRES   REMARKS
SWIFT CURRENT  CLEAR     70  45  41 NW10      29.67F
REGINA         MOCLDY    64 N/A N/A S9        29.68R
VAL MARIE      N/A       66  55  68 SE6        N/A
ASSINIBOIA     N/A       70  50  49 SW8        N/A
CORONACH       N/A       63  57  81 S6         N/A

$$



USA.gov is the U.S. government's official web portal to all federal, state and local government web resources and services.